Location: Bruderhein
(53.8035°N, 112.9265°W)
Time: 13:52:39
(UTC+00:00)

deb Delta 139 - Pass Details

Date: 06 December 2023
Orbit: 731 x 794 km, 98.6° (Epoch: 01 March)

Event Time Altitude Azimuth Distance (km) Brightness Sun altitude
Rises 03:02:26 0° 216° (SW) 3,258 ? -32.6°
Reaches altitude 10° 03:05:46 10° 238° (WSW) 2,323 ? -33.1°
Maximum altitude 03:08:42 15° 274° (W) 1,974 ? -33.5°
Drops below altitude 10° 03:11:38 10° 309° (NW) 2,309 ? -33.9°
Sets 03:14:57 0° 332° (NNW) 3,227 ? -34.4°
